map of KDEQ home
KDEQ - Airport
Location
City:  De Queen, Arkansas, United States
Name:J Lynn Helms Sevier County Airport
ICAO:KDEQ
FAA LID:DEQ

Details
Type:Airport (Airfield)
Use:Public/Civil
Latitude:3402'49"N (34.047000)
Longitude:9423'58"W (-94.399360)
Datum:WGS 1984
Elevation:354 ft (108 m)
Variation:1.66E (WMM2015v2 magnetic declination)
-0.09 annual change
Runways:1
Longest:5001 × 75 ft (1524 × 23 m), paved

Time
Time Zone:UTC-6 (DST-5)
Local Time:

Weather
METAR:KDEQ 041353Z AUTO 21007KT 7SM FEW019 BKN036 OVC043 19/17 A2983 RMK AO2 SLP097 T01890172

Related Locations
Nearby:
Farthest:CCK: 10770 mi / 17333 km
West Island (Pulau Panjang) [Cocos (Keeling) Islands], CC

Find:

   beyond  
but within

Other Information
Maps:
NOTAMs:
Links:
Sources:

  
  • flag of United States
  • flag of Arkansas
  

Sectional Chart

Flight Planning
at skyvector.com

Satellite Image

Google Maps Satellite view

 

Copyright © 2004-2019 Karl L. Swartz. All rights reserved.
The Great Circle Mapper name and logo are trademarks of the Great Circle Mapper.
All other trademarks mentioned herein belong to their respective owners.
Please see credits for attibutions and further copyright information.

  Follow gcmap on Facebook Follow gcmap on Twitter GCmap on LinkedIn

hCard Microformat

Geo Microformat